CDT,Max TemperatureF,Mean TemperatureF,Min TemperatureF,Max Dew PointF,MeanDew PointF,Min DewpointF,Max Humidity, Mean Humidity, Min Humidity, Max Sea Level PressureIn, Mean Sea Level PressureIn, Min Sea Level PressureIn, Max VisibilityMiles, Mean VisibilityMiles, Min VisibilityMiles, Max Wind SpeedMPH, Mean Wind SpeedMPH, Max Gust SpeedMPH,PrecipitationIn, CloudCover, Events, WindDirDegrees
2011-10-1,64,50,37,37,30,10,81,55,12,30.37,30.29,30.21,10,10,10,7,2,,0.00,0,,16
2011-10-2,73,53,33,45,33,14,87,59,11,30.32,30.25,30.18,10,9,0,6,0,,0.00,1,Fog,238
2011-10-3,80,58,37,46,34,14,87,55,8,30.26,30.21,30.17,10,9,1,5,0,,0.00,0,,351
2011-10-4,82,62,41,46,35,12,87,50,7,30.29,30.22,30.16,10,9,1,10,2,,0.00,0,,142
2011-10-5,84,64,44,46,39,27,87,52,13,30.23,30.18,30.11,10,10,2,13,2,17,0.00,0,,156
2011-10-6,84,64,44,48,42,36,87,53,18,30.20,30.15,30.09,10,10,1,15,3,21,0.00,0,,151
2011-10-7,87,68,50,54,41,25,82,37,10,30.21,30.14,30.09,10,10,10,25,9,33,0.00,0,,165
2011-10-8,87,68,50,54,45,34,82,48,16,30.24,30.19,30.16,10,10,10,16,5,22,0.00,0,,160
2011-10-9,84,66,48,54,45,37,82,52,20,30.30,30.24,30.17,10,10,10,15,3,23,0.00,0,,143
2011-10-10,80,62,44,52,45,36,82,56,20,30.17,30.08,29.99,10,10,10,12,2,16,0.00,1,,154
2011-10-11,78,68,59,61,56,52,83,71,47,29.99,29.94,29.87,10,10,7,9,2,,0.06,4,Rain,158
2011-10-12,71,61,51,63,55,46,88,82,73,29.85,29.74,29.62,10,7,0,13,2,20,0.64,5,Fog-Rain,140
2011-10-13,71,65,59,55,48,30,88,60,23,29.66,29.61,29.58,10,10,5,26,10,34,0.00,4,Rain,295
2011-10-14,62,55,48,45,41,39,76,61,42,29.82,29.73,29.66,10,10,10,23,14,32,0.00,2,Rain,282
2011-10-15,68,55,42,39,32,16,76,49,13,29.99,29.93,29.87,10,10,10,23,13,32,0.00,0,,272
2011-10-16,62,52,42,43,36,27,82,58,27,29.93,29.86,29.76,10,10,10,18,5,28,0.00,1,Rain,321
2011-10-17,55,46,37,37,30,25,71,54,31,29.99,29.95,29.88,10,10,10,13,6,20,0.00,1,Rain,261
2011-10-18,53,48,42,36,32,30,76,56,41,29.92,29.88,29.85,10,10,10,17,7,22,0.00,2,,316
2011-10-19,51,48,44,36,32,27,71,55,40,29.89,29.86,29.83,10,10,10,26,13,32,0.00,7,,348
2011-10-20,53,46,39,34,31,28,70,58,38,29.89,29.82,29.79,10,10,10,20,14,25,0.00,3,,308
2011-10-21,62,48,33,30,24,12,75,48,14,30.13,30.07,29.98,10,10,7,13,5,17,0.00,0,,278
2011-10-22,69,51,33,37,31,27,81,53,20,30.08,30.04,30.01,10,10,10,13,2,17,0.00,0,,311
2011-10-23,75,57,39,43,37,32,81,53,22,30.00,29.93,29.84,10,10,5,18,4,24,0.00,1,Rain,212
2011-10-24,71,56,41,45,39,30,82,58,22,30.14,30.06,29.94,10,10,7,12,6,9,0.00,0,,241
2011-10-25,80,66,51,54,44,37,67,49,28,30.00,29.82,29.68,10,10,10,23,8,32,0.00,2,Rain,174
2011-10-26,57,52,46,50,40,37,82,69,54,30.03,29.95,29.80,10,10,5,16,12,21,0.00,7,,354
2011-10-27,57,47,35,37,29,10,76,52,17,30.14,30.06,30.01,10,10,10,16,3,22,0.00,4,,313
2011-10-28,60,43,26,30,20,-2,86,51,8,30.18,30.11,30.02,10,10,7,18,3,28,0.00,2,,246
2011-10-29,59,46,32,23,14,-4,64,34,8,30.14,30.08,30.04,10,10,10,9,3,,0.00,0,,279
2011-10-30,57,50,42,45,32,18,76,52,32,30.02,29.94,29.88,10,10,7,21,9,30,0.05,3,Rain,201
2011-10-31,55,44,33,34,29,25,75,60,31,30.10,30.05,29.98,10,10,10,10,2,17,0.00,2,,266